TimeEDT,TemperatureF,Dew PointF,Humidity,Sea Level PressureIn,VisibilityMPH,Wind Direction,Wind SpeedMPH,Gust SpeedMPH,PrecipitationIn,Events,Conditions,WindDirDegrees,DateUTC
12:54 AM,55.9,52.0,87,29.93,8.0,NE,4.6,-,N/A,,Partly Cloudy,50,2012-10-28 04:54:00
1:17 AM,55.4,51.8,88,29.92,8.0,NE,9.2,-,N/A,,Mostly Cloudy,40,2012-10-28 05:17:00
1:45 AM,55.4,51.8,88,29.93,8.0,NE,5.8,-,N/A,,Scattered Clouds,50,2012-10-28 05:45:00
1:54 AM,57.0,51.1,81,29.92,8.0,NE,6.9,-,N/A,,Mostly Cloudy,50,2012-10-28 05:54:00
2:54 AM,57.0,51.1,81,29.92,9.0,NE,8.1,-,N/A,,Overcast,40,2012-10-28 06:54:00
3:54 AM,55.9,51.1,84,29.90,8.0,NE,6.9,-,N/A,,Overcast,40,2012-10-28 07:54:00
4:54 AM,55.9,51.1,84,29.90,8.0,NNE,4.6,-,N/A,,Overcast,20,2012-10-28 08:54:00
5:16 AM,55.4,51.8,88,29.91,8.0,NE,6.9,-,N/A,,Mostly Cloudy,40,2012-10-28 09:16:00
5:54 AM,55.9,51.1,84,29.91,8.0,NE,3.5,-,N/A,,Overcast,50,2012-10-28 09:54:00
6:54 AM,55.0,50.0,83,29.90,10.0,Calm,Calm,-,N/A,,Overcast,0,2012-10-28 10:54:00
7:47 AM,55.4,48.2,77,29.91,10.0,NNE,6.9,-,N/A,,Overcast,30,2012-10-28 11:47:00
7:54 AM,55.0,48.9,80,29.91,10.0,NNE,6.9,-,N/A,,Overcast,20,2012-10-28 11:54:00
8:03 AM,55.4,48.2,77,29.91,10.0,NNE,6.9,-,N/A,,Overcast,30,2012-10-28 12:03:00
8:54 AM,54.0,48.9,83,29.90,9.0,ENE,5.8,-,0.00,Rain,Light Rain,60,2012-10-28 12:54:00
9:54 AM,54.0,50.0,86,29.90,7.0,NNE,5.8,-,0.02,Rain,Light Rain,30,2012-10-28 13:54:00
10:54 AM,55.0,51.1,86,29.89,9.0,NE,4.6,-,0.01,,Overcast,40,2012-10-28 14:54:00
11:54 AM,57.0,45.0,64,29.85,10.0,NE,6.9,-,N/A,,Mostly Cloudy,40,2012-10-28 15:54:00
12:54 PM,57.0,39.9,53,29.84,10.0,ENE,11.5,-,N/A,,Partly Cloudy,60,2012-10-28 16:54:00
1:54 PM,55.0,39.9,57,29.82,10.0,NE,9.2,18.4,N/A,,Scattered Clouds,50,2012-10-28 17:54:00
2:54 PM,54.0,41.0,62,29.79,10.0,NE,13.8,21.9,N/A,,Mostly Cloudy,40,2012-10-28 18:54:00
3:54 PM,54.0,42.1,64,29.79,10.0,NE,8.1,16.1,N/A,,Overcast,40,2012-10-28 19:54:00
4:54 PM,54.0,42.1,64,29.79,10.0,NE,12.7,-,N/A,,Overcast,40,2012-10-28 20:54:00
5:41 PM,53.6,42.8,67,29.79,10.0,NE,12.7,-,N/A,,Overcast,40,2012-10-28 21:41:00
5:54 PM,54.0,43.0,66,29.79,10.0,NE,10.4,-,N/A,,Overcast,40,2012-10-28 21:54:00
6:54 PM,54.0,44.1,69,29.77,10.0,NNE,15.0,-,N/A,,Overcast,30,2012-10-28 22:54:00
7:54 PM,54.0,45.0,72,29.76,10.0,NE,9.2,18.4,0.00,,Overcast,40,2012-10-28 23:54:00
8:54 PM,54.0,45.0,72,29.77,10.0,NNE,16.1,19.6,N/A,,Overcast,30,2012-10-29 00:54:00
9:54 PM,54.0,44.1,69,29.75,10.0,NE,12.7,18.4,N/A,,Overcast,40,2012-10-29 01:54:00
10:54 PM,54.0,44.1,69,29.73,10.0,NNE,10.4,-,N/A,,Overcast,20,2012-10-29 02:54:00
11:54 PM,53.1,42.1,66,29.71,10.0,NE,6.9,-,N/A,,Overcast,50,2012-10-29 03:54:00